Starlink 5525

operational
NORAD ID: 57218 Int'l Des: 2023-094 Owner: SPXS Country: US Constellation: starlink
LEOCIRCULAR

Starlink 5525について

説明を読み込み中...

リアルタイム位置

3D地球を読み込み中...

次回通過

高度履歴

Altitude vs Time

uPlot chart will show altitude changes over time

軌道要素

1 57218U 23094A 25304.51209897 .00000260 00000-0 34310-4 0 9999
2 57218 43.0046 12.6471 0001084 273.5766 86.4952 15.02537586127682
Epoch: Oct 31, 2025 • Age: 25 hours

現在のステータス

高度 558.5 km
速度 7.58 km/s
衛星直下点 13.32°N, 62.61°W
打ち上げ日 Jul 7, 2023
運用期間 2.3 years
タイプ internet

技術仕様

分類 Payload
質量 305.00 kg
乾燥質量 290.00 kg
総質量 305.00 kg
長さ 0.20 m
直径 2.80 m
スパン 9.00 m
形状 Box + pan
製造者 SPXS
バスタイプ Starlink
フェーズステータス In Orbit
所有者/国 SPXS/US

大規模コンステレーション

Loading constellations...